Weather in Protochnoye

Russia / Astrakhan Oblast     45°53′28″N   47°17′57″E
temp.,
°C
wind,
m/s
gust,
m/s
humid.,
%
clouds,
%
prec.,
mm/h
press.,
hPa
HPBL,
m
21 january, thu
thu2101:00−9nw466011 0.0 1027436
04:00−10wnw476416 0.0 1028420
07:00−10wnw5763100 0.0 1029482
10:00−10wnw586380 0.0 1030465
13:00−7wnw57480 0.0 1032631
16:00−6wnw56470 0.0 1031616
19:00−8nw45550 0.0 1033412
22:00−8w23610 0.0 1032178
22 january, fri
fri2201:00−8sw225833 0.0 103272
04:00−7sw456061 0.0 1031135
07:00−7ssw467662 0.0 1030134
10:00−3sw6117378 0.0 1030284
13:00+2wsw8127694 0.2 1029565
16:00+3w6117397 0.2 1028533
19:00+1w488696 0.0 1029145
22:00+1wsw488593 0.0 1029178
23 january, sat
sat2301:000wsw348679 0.0 102965
04:00−1w238852 0.0 102923
07:00−1wsw128943 0.0 103022
10:00+2s127846 0.0 103124
13:00+5sse236035 0.0 1030340
16:00+5se456419 0.0 1029264
19:00+1se458318 0.0 102991
22:00+1ese498938 0.0 1029183
24 january, sun
sun2401:000ese5118618 0.0 1028242
04:00+1e6108911 0.0 1027209
07:00+3e7138692 0.0 1026362
10:00+3ese8148396 0.1 1026632
13:00+5sse10147395 0.0 10261085
16:00+6sse9137094 0.0 10241005
19:00+3se7148484 0.0 1024405
22:00+2se6138657 0.0 1025334
25 january, mon
mon2501:00+1ese5118948 0.0 1024257
04:00+1ese5119138 0.0 1024244
07:000ese6119167 0.0 1023246
10:00+2ese6118883 0.0 1024326
13:00+6se7107399 0.0 1024791
16:00+6se71174100 0.0 1023822
19:00+2ese61283100 0.0 1023375
22:00+1ese5108855 0.0 1023254